User: anonymous   Login
Location: Unspecified
(0.0000°N, 0.0000°E)
Time: 18:45:16
(UTC+00:00)
Language:

USA 158 - Orbit

View from above orbital plane
View from above orbital plane
View from above satellite
View from above satellite

Ground track
Ground track

The orbit data is extracted from the following two-line orbital elements,

1 26770U 01020A   20004.98968098 0.00000000  00000-0  00000-0 0    01
2 26770   7.6634  43.7654 0017964  52.0406 308.1336  0.98834174    01
Epoch (UTC): 04 January 2020 23:45:08
Eccentricity: 0.0017964
inclination: 7.6634°
perigee height: 36117 km
apogee height: 36270 km
right ascension of ascending node: 43.7654°
argument of perigee: 52.0406°
revolutions per day: 0.98834174
mean anomaly at epoch: 308.1336°
orbit number at epoch: 0

The dashed part of the orbit path shows where the satellite is in the earth's shadow,  

DLR